Virginia Beach, VA

2:15 AM EDT on October 01, 2016 (GMT -0400)
Oceana Naval Air Station

Weather History for KNTU - July, 2013

Change the Weather History Date:

Friday, July 12, 2013

  Actual Average Record
Temperature  
Mean Temperature 76 °F -  
Max Temperature 80 °F 83 °F 95 °F (2011)
Min Temperature 73 °F 67 °F 57 °F (2002)
Cooling Degree Days 12    
Growing Degree Days 26 (Base 50)    
Moisture  
Dew Point 70 °F    
Average Humidity 82    
Maximum Humidity 90    
Minimum Humidity 73    
Precipitation  
Precipitation 0.30 in - - ()
Sea Level Pressure  
Sea Level Pressure 29.94 in    
Wind  
Wind Speed 3 mph (SSW)    
Max Wind Speed 9 mph    
Max Gust Speed -    
Visibility 9 miles    
Events Rain    
Averages and records for this station are not official NWS values.
T = Trace of Precipitation, MM = Missing Value Source: NWS Daily Summary

Daily Weather History Graph

Daily Weather History Graph

Search for Another Location

Airport or City:

Trip Planner

Search our weather history database for the weather conditions in past years. The results will help you decide how hot, cold, wet, or windy it might be!

Date:

Astronomy

Jul. 12, 2013 Rise Set
Actual Time 5:54 AM EDT 8:24 PM EDT
Civil Twilight 5:24 AM EDT 8:54 PM EDT
Nautical Twilight 4:47 AM EDT 9:31 PM EDT
Astronomical Twilight 4:06 AM EDT 10:12 PM EDT
Moon 10:01 AM EDT (7/12) 10:42 PM EDT (7/12)
Length of Visible Light 15h 29m
Length of Day
14h 29m
Waxing Crescent, 17% of the Moon is Illuminated
Jul 12
Waxing Crescent
Jul 15
First Quarter
Jul 22
Full
Jul 29
Last Quarter
Aug 6
New

Hourly Weather History & Observations

Time (EDT) Temp. Heat Index Dew Point Humidity Pressure Visibility Wind Dir Wind Speed Gust Speed Precip Events Conditions
12:56 AM 73.9 °F - 68.7 °F 84% 29.91 in 10.0 mi Calm Calm - 0.00 in Rain Light Rain
1:35 AM 73.4 °F - 68.0 °F 83% 29.90 in 10.0 mi SW 3.5 mph - 0.00 in   Overcast
1:56 AM 73.9 °F - 68.7 °F 84% 29.91 in 10.0 mi Calm Calm - 0.00 in Rain Light Rain
2:13 AM 73.4 °F - 68.0 °F 83% 29.90 in 10.0 mi Calm Calm - 0.00 in   Overcast
2:49 AM 73.4 °F - 69.8 °F 88% 29.90 in 6.0 mi WSW 3.5 mph - 0.01 in Rain Light Rain
2:56 AM 73.9 °F - 69.1 °F 85% 29.91 in 5.0 mi West 3.5 mph - 0.02 in Rain Light Rain
3:48 AM 73.4 °F - 69.8 °F 88% 29.89 in 6.0 mi Calm Calm - 0.10 in Rain Light Rain
3:56 AM 73.9 °F - 69.1 °F 85% 29.90 in 6.0 mi West 3.5 mph - 0.12 in Rain Light Rain
4:47 AM 73.4 °F - 68.0 °F 83% 29.88 in 10.0 mi NW 4.6 mph - 0.03 in Rain Light Rain
4:56 AM 73.9 °F - 68.7 °F 84% 29.88 in 10.0 mi NW 3.5 mph - 0.03 in Rain Light Rain
5:29 AM 73.4 °F - 69.8 °F 88% 29.89 in 10.0 mi Calm Calm - 0.00 in   Overcast
5:56 AM 73.0 °F - 69.4 °F 88% 29.91 in 10.0 mi Calm Calm - 0.00 in   Overcast
6:56 AM 73.9 °F - 67.6 °F 81% 29.91 in 10.0 mi Calm Calm - 0.00 in Rain Light Rain
7:34 AM 73.4 °F - 68.0 °F 83% 29.90 in 10.0 mi ESE 3.5 mph - 0.05 in   Overcast
7:56 AM 73.9 °F - 69.3 °F 85% 29.91 in 10.0 mi East 5.8 mph - 0.05 in   Overcast
8:12 AM 73.4 °F - 69.8 °F 88% 29.90 in 10.0 mi ESE 4.6 mph - 0.00 in Rain Light Rain
8:56 AM 73.9 °F - 69.3 °F 85% 29.91 in 10.0 mi SE 6.9 mph - 0.00 in Rain Light Rain
9:56 AM 73.9 °F - 68.0 °F 82% 29.93 in 10.0 mi SE 9.2 mph - 0.02 in Rain Light Rain
10:56 AM 73.9 °F - 68.9 °F 84% 29.94 in 10.0 mi South 3.5 mph - 0.01 in Rain Light Rain
11:16 AM 73.4 °F - 68.0 °F 83% 29.92 in 10.0 mi SSE 4.6 mph - 0.00 in   Overcast
11:56 AM 73.9 °F - 68.2 °F 82% 29.93 in 10.0 mi SSE 9.2 mph - 0.00 in   Mostly Cloudy
12:56 PM 80.1 °F 83.7 °F 71.6 °F 75% 29.93 in 10.0 mi SSW 6.9 mph - N/A   Mostly Cloudy
1:56 PM 80.1 °F 83.4 °F 70.5 °F 73% 29.94 in 10.0 mi SSW 9.2 mph - N/A   Mostly Cloudy
2:56 PM 80.1 °F 83.4 °F 70.9 °F 73% 29.94 in 10.0 mi SSW 8.1 mph - N/A   Overcast
3:08 PM 80.6 °F 84.6 °F 71.6 °F 74% 29.94 in 10.0 mi SSW 6.9 mph - 0.00 in Rain Light Rain
3:56 PM 80.1 °F 83.6 °F 71.2 °F 74% 29.95 in 10.0 mi SSW 8.1 mph - 0.00 in Rain Light Rain
4:10 PM 80.6 °F 84.6 °F 71.6 °F 74% 29.94 in 10.0 mi SSW 8.1 mph - 0.00 in   Overcast
4:29 PM 80.6 °F 84.6 °F 71.6 °F 74% 29.93 in 10.0 mi SW 9.2 mph - 0.00 in Rain Light Rain
4:56 PM 79.0 °F - 70.9 °F 76% 29.95 in 10.0 mi SW 8.1 mph - 0.00 in Rain Light Rain
5:56 PM 79.0 °F - 71.6 °F 78% 29.95 in 10.0 mi SW 4.6 mph - 0.00 in   Mostly Cloudy
6:31 PM 78.8 °F - 71.6 °F 78% 29.93 in 10.0 mi Calm Calm - 0.00 in Rain Light Rain
6:56 PM 78.1 °F - 71.8 °F 81% 29.96 in 10.0 mi South 4.6 mph - 0.00 in Rain Light Rain
7:25 PM 78.8 °F - 75.2 °F 89% 29.96 in 10.0 mi South 4.6 mph - 0.00 in   Mostly Cloudy
7:56 PM 78.1 °F - 70.2 °F 77% 29.97 in 10.0 mi Calm Calm - 0.00 in   Mostly Cloudy
8:27 PM 77.0 °F - 69.8 °F 78% 29.97 in 10.0 mi SW 5.8 mph - N/A   Overcast
8:56 PM 77.0 °F - 71.8 °F 84% 29.99 in 10.0 mi South 3.5 mph - N/A   Overcast
9:21 PM 75.2 °F - 71.6 °F 89% 29.99 in 3.0 mi Calm Calm - 0.01 in Rain Light Rain
9:43 PM 75.2 °F - 71.6 °F 89% 29.99 in 10.0 mi SSE 5.8 mph - 0.04 in   Mostly Cloudy
9:56 PM 75.9 °F - 72.3 °F 89% 30.01 in 10.0 mi Calm Calm - 0.05 in Rain Light Rain
10:15 PM 75.2 °F - 71.6 °F 89% 30.01 in 10.0 mi SE 6.9 mph - 0.00 in   Overcast
10:56 PM 75.0 °F - 71.8 °F 90% 30.03 in 10.0 mi South 3.5 mph - 0.00 in   Overcast
11:56 PM 75.0 °F - 68.9 °F 81% 30.03 in 10.0 mi Calm Calm - N/A   Overcast